Terug naar catalogus

STARLINK-33692

ActiefCommunicatieVLEO
NORAD 63408·PAYLOAD·🇺🇸 United States

Gelanceerd Mar 31, 2025 vanaf Cape Canaveral Space Force Station

Loading…

Volgende Passages (komende 24 uur)

TLE

VersSource: CelesTrak SupGP

Epoch: Sep 14, 2026, 22:22 UTC

1 63408C 25065K   26257.93243056 -.00033131  00000+0 -12003-2 0  2570
2 63408  42.9994 122.1593 0001362 271.0887 240.2451 15.27586228    13

Volg STARLINK-33692 in realtime met AllMySat

Download on the App Store